[Date Prev][Date Next][Thread Prev][Thread Next] - [Date Index][Thread Index][Author Index]
2 Line ISS Keps 10-27
- Subject: [sarex] 2 Line ISS Keps 10-27
- From: "Dave Larsen Ph.D." <doc@xxxxxxxxxxx>
- Date: Sun, 27 Oct 2002 02:05:24 -0700
ISS
1 25544U 98067A 02300.15289352 .00031020 00000-0 41874-3 0 3065
2 25544 51.6352 110.2886 0014922 75.9066 98.7128 15.57376343224558
----
Via the sarex mailing list at AMSAT.ORG courtesy of AMSAT-NA.
To unsubscribe, send "unsubscribe sarex" to Majordomo@amsat.org
AMSAT Home